Time,TemperatureF,DewpointF,PressureIn,WindDirection,WindDirectionDegrees,WindSpeedMPH,WindSpeedGustMPH,Humidity,HourlyPrecipIn,Conditions,Clouds,dailyrainin,SoftwareType,DateUTC
2013-07-31 00:02:00,71.3,54.0,30.02,SW,218,0.0,10.0,55,0.00,,,0.00,weatherlink.com 1.10,2013-07-31 07:02:00,
2013-07-31 00:32:00,69.9,54.0,30.02,SW,218,0.0,4.0,58,0.00,,,0.00,weatherlink.com 1.10,2013-07-31 07:32:00,
2013-07-31 00:47:00,69.8,55.0,30.02,SW,229,0.0,7.0,60,0.00,,,0.00,weatherlink.com 1.10,2013-07-31 07:47:00,
2013-07-31 01:02:00,69.6,55.0,30.03,West,259,0.0,9.0,61,0.00,,,0.00,weatherlink.com 1.10,2013-07-31 08:02:00,
2013-07-31 01:17:00,69.3,56.0,30.02,WSW,251,1.0,9.0,62,0.00,,,0.00,weatherlink.com 1.10,2013-07-31 08:17:00,
2013-07-31 01:32:00,68.8,56.0,30.02,WSW,241,1.0,5.0,63,0.00,,,0.00,weatherlink.com 1.10,2013-07-31 08:32:00,
2013-07-31 01:47:00,68.5,55.0,30.02,WSW,250,0.0,9.0,63,0.00,,,0.00,weatherlink.com 1.10,2013-07-31 08:47:00,
2013-07-31 02:02:00,68.0,55.0,30.02,West,268,3.0,4.0,64,0.00,,,0.00,weatherlink.com 1.10,2013-07-31 09:02:00,
2013-07-31 02:17:00,67.6,56.0,30.01,SSW,210,1.0,5.0,66,0.00,,,0.00,weatherlink.com 1.10,2013-07-31 09:17:00,
2013-07-31 02:32:00,67.4,55.0,30.01,NW,316,2.0,5.0,65,0.00,,,0.00,weatherlink.com 1.10,2013-07-31 09:32:00,
2013-07-31 03:03:00,66.9,56.0,30.02,WSW,253,6.0,9.0,69,0.00,,,0.00,weatherlink.com 1.10,2013-07-31 10:03:00,
2013-07-31 03:18:00,67.0,56.0,30.02,West,262,3.0,11.0,69,0.00,,,0.00,weatherlink.com 1.10,2013-07-31 10:18:00,
2013-07-31 03:33:00,66.5,57.0,30.02,SW,218,2.0,7.0,71,0.00,,,0.00,weatherlink.com 1.10,2013-07-31 10:33:00,
2013-07-31 03:48:00,66.2,57.0,30.01,NW,325,2.0,4.0,71,0.00,,,0.00,weatherlink.com 1.10,2013-07-31 10:48:00,
2013-07-31 04:03:00,66.1,56.0,30.01,WSW,248,3.0,10.0,71,0.00,,,0.00,weatherlink.com 1.10,2013-07-31 11:03:00,
2013-07-31 04:18:00,65.8,57.0,30.02,WSW,241,1.0,4.0,72,0.00,,,0.00,weatherlink.com 1.10,2013-07-31 11:18:00,
2013-07-31 04:33:00,65.4,57.0,30.02,West,277,3.0,9.0,73,0.00,,,0.00,weatherlink.com 1.10,2013-07-31 11:33:00,
2013-07-31 04:48:00,65.2,57.0,30.02,SW,236,0.0,3.0,74,0.00,,,0.00,weatherlink.com 1.10,2013-07-31 11:48:00,
2013-07-31 05:03:00,64.4,56.0,30.02,WSW,247,2.0,5.0,75,0.00,,,0.00,weatherlink.com 1.10,2013-07-31 12:03:00,
2013-07-31 05:33:00,64.6,57.0,30.02,WSW,256,2.0,8.0,77,0.00,,,0.00,weatherlink.com 1.10,2013-07-31 12:33:00,
2013-07-31 05:48:00,64.5,57.0,30.02,WSW,251,1.0,6.0,76,0.00,,,0.00,weatherlink.com 1.10,2013-07-31 12:48:00,
2013-07-31 06:03:00,64.3,57.0,30.03,SW,231,1.0,9.0,77,0.00,,,0.00,weatherlink.com 1.10,2013-07-31 13:03:00,
2013-07-31 06:18:00,64.1,57.0,30.02,WNW,295,0.0,2.0,78,0.00,,,0.00,weatherlink.com 1.10,2013-07-31 13:18:00,
2013-07-31 06:33:00,64.2,57.0,30.02,WSW,237,2.0,8.0,78,0.00,,,0.00,weatherlink.com 1.10,2013-07-31 13:33:00,
2013-07-31 06:48:00,64.0,57.0,30.02,NNW,345,2.0,7.0,79,0.00,,,0.00,weatherlink.com 1.10,2013-07-31 13:48:00,
2013-07-31 07:03:00,64.1,57.0,30.02,SW,222,0.0,12.0,78,0.00,,,0.00,weatherlink.com 1.10,2013-07-31 14:03:00,
2013-07-31 07:18:00,64.2,57.0,30.02,WNW,282,0.0,8.0,78,0.00,,,0.00,weatherlink.com 1.10,2013-07-31 14:18:00,
2013-07-31 07:33:00,64.7,57.0,30.02,WSW,238,1.0,8.0,77,0.00,,,0.00,weatherlink.com 1.10,2013-07-31 14:33:00,
2013-07-31 07:48:00,64.5,57.0,30.03,WSW,256,0.0,5.0,77,0.00,,,0.00,weatherlink.com 1.10,2013-07-31 14:48:00,
2013-07-31 08:03:00,65.2,57.0,30.02,SW,223,0.0,6.0,76,0.00,,,0.00,weatherlink.com 1.10,2013-07-31 15:03:00,
2013-07-31 08:18:00,65.2,57.0,30.03,WSW,251,0.0,10.0,76,0.00,,,0.00,weatherlink.com 1.10,2013-07-31 15:18:00,
2013-07-31 08:33:00,65.4,58.0,30.03,WSW,237,0.0,2.0,76,0.00,,,0.00,weatherlink.com 1.10,2013-07-31 15:33:00,
2013-07-31 08:48:00,67.4,59.0,30.03,SW,222,0.0,4.0,74,0.00,,,0.00,weatherlink.com 1.10,2013-07-31 15:48:00,
2013-07-31 09:03:00,67.4,58.0,30.02,SW,223,1.0,3.0,73,0.00,,,0.00,weatherlink.com 1.10,2013-07-31 16:03:00,
2013-07-31 09:18:00,67.6,59.0,30.02,SSW,209,0.0,5.0,75,0.00,,,0.00,weatherlink.com 1.10,2013-07-31 16:18:00,
2013-07-31 09:33:00,69.9,60.0,30.01,WSW,254,2.0,5.0,70,0.00,,,0.00,weatherlink.com 1.10,2013-07-31 16:33:00,
2013-07-31 09:48:00,68.3,58.0,30.00,SW,230,1.0,10.0,70,0.00,,,0.00,weatherlink.com 1.10,2013-07-31 16:48:00,
2013-07-31 10:03:00,68.8,59.0,30.00,SW,226,1.0,8.0,70,0.00,,,0.00,weatherlink.com 1.10,2013-07-31 17:03:00,
2013-07-31 10:19:00,69.6,59.0,30.00,WSW,241,0.0,7.0,68,0.00,,,0.00,weatherlink.com 1.10,2013-07-31 17:19:00,
2013-07-31 10:33:00,69.5,58.0,30.00,SW,235,0.0,6.0,68,0.00,,,0.00,weatherlink.com 1.10,2013-07-31 17:33:00,
2013-07-31 10:48:00,72.1,59.0,30.00,North,-999,0.0,7.0,64,0.00,,,0.00,weatherlink.com 1.10,2013-07-31 17:48:00,
2013-07-31 11:03:00,73.0,60.0,29.99,North,-999,0.0,6.0,63,0.00,,,0.00,weatherlink.com 1.10,2013-07-31 18:03:00,
2013-07-31 11:18:00,72.6,60.0,29.99,SW,227,0.0,5.0,64,0.00,,,0.00,weatherlink.com 1.10,2013-07-31 18:18:00,
2013-07-31 11:33:00,72.5,59.0,29.99,WSW,258,1.0,8.0,62,0.00,,,0.00,weatherlink.com 1.10,2013-07-31 18:33:00,
2013-07-31 11:48:00,73.3,59.0,29.98,WSW,242,0.0,5.0,62,0.00,,,0.00,weatherlink.com 1.10,2013-07-31 18:48:00,
2013-07-31 12:03:00,73.5,59.0,29.98,SSW,213,2.0,8.0,61,0.00,,,0.00,weatherlink.com 1.10,2013-07-31 19:03:00,
2013-07-31 12:20:00,72.6,59.0,29.97,SW,230,3.0,9.0,63,0.00,,,0.00,weatherlink.com 1.10,2013-07-31 19:20:00,
2013-07-31 12:33:00,71.7,59.0,29.97,SW,227,3.0,12.0,65,0.00,,,0.00,weatherlink.com 1.10,2013-07-31 19:33:00,
2013-07-31 12:48:00,72.8,59.0,29.96,WSW,258,3.0,12.0,63,0.00,,,0.00,weatherlink.com 1.10,2013-07-31 19:48:00,
2013-07-31 13:03:00,71.7,59.0,29.96,NW,306,4.0,16.0,65,0.00,,,0.00,weatherlink.com 1.10,2013-07-31 20:03:00,
2013-07-31 13:19:00,71.6,59.0,29.96,SW,231,7.0,11.0,65,0.00,,,0.00,weatherlink.com 1.10,2013-07-31 20:19:00,
2013-07-31 13:34:00,71.1,60.0,29.95,West,265,3.0,13.0,67,0.00,,,0.00,weatherlink.com 1.10,2013-07-31 20:34:00,
2013-07-31 13:49:00,71.2,60.0,29.95,WSW,250,9.0,12.0,67,0.00,,,0.00,weatherlink.com 1.10,2013-07-31 20:49:00,
2013-07-31 14:04:00,70.9,60.0,29.95,SW,221,4.0,17.0,68,0.00,,,0.00,weatherlink.com 1.10,2013-07-31 21:04:00,
2013-07-31 14:19:00,72.0,60.0,29.94,WSW,245,7.0,11.0,67,0.00,,,0.00,weatherlink.com 1.10,2013-07-31 21:19:00,
2013-07-31 14:34:00,72.3,61.0,29.94,SSW,196,4.0,8.0,67,0.00,,,0.00,weatherlink.com 1.10,2013-07-31 21:34:00,
2013-07-31 14:49:00,71.9,59.0,29.96,SSW,206,7.0,11.0,65,0.00,,,0.00,weatherlink.com 1.10,2013-07-31 21:49:00,
2013-07-31 15:04:00,71.5,60.0,29.95,WNW,283,2.0,11.0,67,0.00,,,0.00,weatherlink.com 1.10,2013-07-31 22:04:00,
2013-07-31 15:19:00,73.3,60.0,29.94,WSW,237,2.0,15.0,64,0.00,,,0.00,weatherlink.com 1.10,2013-07-31 22:19:00,
2013-07-31 15:34:00,72.5,61.0,29.92,South,189,3.0,11.0,68,0.00,,,0.00,weatherlink.com 1.10,2013-07-31 22:34:00,
2013-07-31 15:49:00,75.7,62.0,29.92,West,262,14.0,14.0,63,0.00,,,0.00,weatherlink.com 1.10,2013-07-31 22:49:00,
2013-07-31 16:04:00,76.4,62.0,29.91,SSW,212,2.0,15.0,62,0.00,,,0.00,weatherlink.com 1.10,2013-07-31 23:04:00,
2013-07-31 16:19:00,77.4,61.0,29.91,South,175,4.0,12.0,58,0.00,,,0.00,weatherlink.com 1.10,2013-07-31 23:19:00,
2013-07-31 16:34:00,77.1,61.0,29.91,SW,221,5.0,13.0,57,0.00,,,0.00,weatherlink.com 1.10,2013-07-31 23:34:00,
2013-07-31 16:49:00,77.2,61.0,29.90,WSW,239,9.0,15.0,57,0.00,,,0.00,weatherlink.com 1.10,2013-07-31 23:49:00,
2013-07-31 17:04:00,75.9,61.0,29.90,WSW,256,13.0,15.0,60,0.00,,,0.00,weatherlink.com 1.10,2013-08-01 00:04:00,
2013-07-31 17:19:00,74.4,60.0,29.90,WSW,240,4.0,15.0,62,0.00,,,0.00,weatherlink.com 1.10,2013-08-01 00:19:00,
2013-07-31 17:34:00,73.8,61.0,29.89,North,8,4.0,18.0,64,0.00,,,0.00,weatherlink.com 1.10,2013-08-01 00:34:00,
2013-07-31 17:49:00,73.6,60.0,29.90,WSW,258,8.0,21.0,63,0.00,,,0.00,weatherlink.com 1.10,2013-08-01 00:49:00,
2013-07-31 18:04:00,72.9,61.0,29.90,West,260,10.0,18.0,66,0.00,,,0.00,weatherlink.com 1.10,2013-08-01 01:04:00,
2013-07-31 18:19:00,72.3,61.0,29.90,West,261,11.0,22.0,67,0.00,,,0.00,weatherlink.com 1.10,2013-08-01 01:19:00,
2013-07-31 18:34:00,72.1,61.0,29.91,SW,233,3.0,24.0,68,0.00,,,0.00,weatherlink.com 1.10,2013-08-01 01:34:00,
2013-07-31 18:49:00,71.9,61.0,29.90,WNW,293,9.0,19.0,68,0.00,,,0.00,weatherlink.com 1.10,2013-08-01 01:49:00,
2013-07-31 19:04:00,72.1,61.0,29.90,SW,221,6.0,24.0,67,0.00,,,0.00,weatherlink.com 1.10,2013-08-01 02:04:00,
2013-07-31 19:19:00,72.1,61.0,29.90,WSW,240,9.0,18.0,68,0.00,,,0.00,weatherlink.com 1.10,2013-08-01 02:19:00,
2013-07-31 19:34:00,72.0,61.0,29.90,SSW,198,8.0,19.0,68,0.00,,,0.00,weatherlink.com 1.10,2013-08-01 02:34:00,
2013-07-31 19:49:00,72.2,61.0,29.90,WSW,250,23.0,23.0,67,0.00,,,0.00,weatherlink.com 1.10,2013-08-01 02:49:00,
2013-07-31 20:04:00,72.2,60.0,29.91,WSW,241,9.0,21.0,66,0.00,,,0.00,weatherlink.com 1.10,2013-08-01 03:04:00,
2013-07-31 20:19:00,72.2,60.0,29.92,SW,225,5.0,16.0,65,0.00,,,0.00,weatherlink.com 1.10,2013-08-01 03:19:00,
2013-07-31 20:34:00,71.9,60.0,29.93,WSW,239,7.0,21.0,66,0.00,,,0.00,weatherlink.com 1.10,2013-08-01 03:34:00,
2013-07-31 20:49:00,71.6,59.0,29.93,WNW,285,8.0,14.0,65,0.00,,,0.00,weatherlink.com 1.10,2013-08-01 03:49:00,
2013-07-31 21:04:00,71.3,59.0,29.93,WNW,291,2.0,10.0,65,0.00,,,0.00,weatherlink.com 1.10,2013-08-01 04:04:00,
2013-07-31 21:19:00,71.7,59.0,29.94,NW,305,2.0,7.0,64,0.00,,,0.00,weatherlink.com 1.10,2013-08-01 04:19:00,
2013-07-31 21:34:00,71.4,58.0,29.94,WSW,252,2.0,8.0,63,0.00,,,0.00,weatherlink.com 1.10,2013-08-01 04:34:00,
2013-07-31 21:49:00,71.0,58.0,29.95,WSW,252,3.0,7.0,63,0.00,,,0.00,weatherlink.com 1.10,2013-08-01 04:49:00,
2013-07-31 22:04:00,71.1,57.0,29.94,SW,231,3.0,9.0,62,0.00,,,0.00,weatherlink.com 1.10,2013-08-01 05:04:00,
2013-07-31 22:19:00,70.6,57.0,29.95,SW,231,4.0,7.0,63,0.00,,,0.00,weatherlink.com 1.10,2013-08-01 05:19:00,
2013-07-31 22:34:00,70.3,57.0,29.95,SSW,210,3.0,8.0,63,0.00,,,0.00,weatherlink.com 1.10,2013-08-01 05:34:00,
2013-07-31 22:49:00,70.4,57.0,29.95,WSW,248,1.0,10.0,63,0.00,,,0.00,weatherlink.com 1.10,2013-08-01 05:49:00,
2013-07-31 23:04:00,70.3,57.0,29.95,WNW,282,4.0,11.0,62,0.00,,,0.00,weatherlink.com 1.10,2013-08-01 06:04:00,
2013-07-31 23:19:00,70.2,57.0,29.94,WSW,237,7.0,10.0,63,0.00,,,0.00,weatherlink.com 1.10,2013-08-01 06:19:00,
2013-07-31 23:34:00,69.9,58.0,29.94,WSW,254,1.0,8.0,66,0.00,,,0.00,weatherlink.com 1.10,2013-08-01 06:34:00,
2013-07-31 23:49:00,69.8,59.0,29.95,SW,229,1.0,14.0,68,0.00,,,0.00,weatherlink.com 1.10,2013-08-01 06:49:00,